Portada
METAR-TAF:

METAR-TAF

Aeroports :

Juigalpa, Nicaragua

latitud: 12-06N, longitud: 085-22W, altitud: 90 m

Observació

L'informe es va fer fa 5 hores i 33 minuts, a les 23:00 UTC
Vent calma
Temperatura 24°C
Humitat 94%
Pressió 1010 hPa
Visibilitat 10 km o més
Núvols disperses a una alçada de 2000 ft, Cumulonimbus.
Núvols disperses a una alçada de 8000 ft

METAR: MNJU 282300Z 00000KT 9999 SCT020CB SCT080 24/23 Q1010 RETSRA CB/SW/W

Hora: 22:33 (04:33 UTC)


TAF: manca

Observacions i pronòstics meteorològics de més de 4000 aeroports (METAR i TAF).

Les estacions disponibles són els punts grocs i vermells al mapa.

Posi el ratolí al punt desitjat per veure el nom de l'estació.

Feu clic per veure les observacions i els pronòstics meteorològics.

Per canviar el mapa: feu clic els botons verds amb una creu de color negre per apropar; al botó verd amb un guió per allunyar la imatge; o en les fletxes verdes per a mapes adjacents.


METAR-TAF: